GEOSCAN 2 (RS92S2)

Last updated on Tue Aug 25 2026 00:03:14 GMT+0000 (Coordinated Universal Time)

1 64890U 25155Q 26236.57840735 .00010284 00000+0 33214-3 0 9993 2 64890 97.4613 205.8722 0004587 286.7993 73.2745 15.32296315 91255
UTC large
Height (km)
Speed (km/s)
/
Latitude / Longitude
Inclination (degrees)
Orbital Period (minutes)
Azimuth
Elevation
Range (km)
Doppler Factor

Next 0 passes for location: London (51.5072 / 0.1276)

No passes found over London.
GEOSCAN 2 (RS92S2)